GW1943 Weather Reports


Display with metric or nautical units.
time (UTC)temp
F
wind
direction
speed
MPH
gust
MPH
rain 1hr
in
rain 24hr
in
rain mn
in
humidity
%
barometer
mb
20260905201915 64 226 0.0 0.0 0.00 0.00 0.00 73 1019.0
20260905201410 64 226 0.0 3.0 0.00 0.00 0.00 73 1019.1
20260905200910 64 229 0.0 3.0 0.00 0.00 0.00 73 1018.9
20260905200406 64 228 0.0 0.0 0.00 0.00 0.00 74 1019.0
20260905195903 63 225 0.0 1.0 0.00 0.00 0.00 74 1019.0
20260905195359 63 249 2.0 2.0 0.00 0.00 0.00 72 1019.0
20260905194854 64 245 2.0 3.0 0.00 0.00 0.00 72 1019.3
20260905194353 65 268 4.0 5.0 0.00 0.00 0.00 71 1018.9
20260905193848 65 231 1.0 5.0 0.00 0.00 0.00 71 1018.8
20260905193342 65 224 1.0 2.0 0.00 0.00 0.00 73 1019.1
20260905192838 64 224 1.0 1.0 0.00 0.00 0.00 73 1019.1
20260905192334 64 235 2.0 3.0 0.00 0.00 0.00 73 1019.4
20260905191833 64 228 1.0 2.0 0.00 0.00 0.00 74 1019.2
20260905191332 64 221 3.0 3.0 0.00 0.00 0.00 74 1019.1
20260905190830 64 244 3.0 5.0 0.00 0.00 0.00 74 1019.1
20260905190325 63 216 2.0 3.0 0.00 0.00 0.00 74 1019.2
20260905185824 63 247 2.0 3.0 0.00 0.00 0.00 76 1019.4
20260905185319 63 250 2.0 3.0 0.00 0.00 0.00 75 1019.2
20260905184818 63 274 3.0 3.0 0.00 0.00 0.00 75 1019.4
20260905184317 63 242 2.0 3.0 0.00 0.00 0.00 74 1019.3
20260905183816 63 214 0.0 2.0 0.00 0.00 0.00 75 1019.4
20260905183312 64 228 1.0 3.0 0.00 0.00 0.00 74 1019.5
20260905182806 64 206 0.0 3.0 0.00 0.00 0.00 75 1019.5
20260905182306 64 205 1.0 2.0 0.00 0.00 0.00 73 1019.5
20260905181801 63 204 1.0 2.0 0.00 0.00 0.00 74 1019.4
20260905181301 62 204 1.0 2.0 0.00 0.00 0.00 78 1019.5
20260905180754 62 204 1.0 1.0 0.00 0.00 0.00 77 1019.7
20260905180250 62 204 0.0 1.0 0.00 0.00 0.00 76 1019.5
20260905175744 62 204 0.0 1.0 0.00 0.00 0.00 78 1019.8
20260905175239 61 204 0.0 2.0 0.00 0.00 0.00 77 1019.4
20260905174734 61 204 0.0 0.0 0.00 0.00 0.00 80 1019.5
20260905174230 60 204 0.0 0.0 0.00 0.00 0.00 82 1019.5
20260905173726 60 204 0.0 0.0 0.00 0.00 0.00 83 1019.7
20260905173221 59 204 0.0 2.0 0.00 0.00 0.00 82 1019.5
20260905172720 59 204 0.0 0.0 0.00 0.00 0.00 83 1019.3
20260905172215 59 204 0.0 0.0 0.00 0.00 0.00 84 1019.4
20260905171711 59 204 0.0 1.0 0.00 0.00 0.00 83 1019.3
20260905171206 59 204 1.0 3.0 0.00 0.00 0.00 84 1019.2
20260905170703 59 204 0.0 0.0 0.00 0.00 0.00 85 1019.2
20260905170158 59 204 0.0 0.0 0.00 0.00 0.00 84 1019.2
20260905165658 59 204 0.0 0.0 0.00 0.00 0.00 84 1019.2
20260905165153 59 204 0.0 1.0 0.00 0.00 0.00 84 1019.1
20260905164648 59 204 0.0 0.0 0.00 0.00 0.00 86 1019.0
20260905164147 59 204 0.0 0.0 0.00 0.00 0.00 86 1019.2
20260905163643 58 204 0.0 0.0 0.00 0.00 0.00 87 1019.1
20260905163140 58 204 0.0 1.0 0.00 0.00 0.00 87 1019.4
20260905162636 57 204 0.0 0.0 0.00 0.00 0.00 88 1019.0
20260905162134 57 204 0.0 0.0 0.00 0.00 0.00 89 1019.2
20260905161629 57 204 0.0 0.0 0.00 0.00 0.00 89 1019.4
20260905161127 57 204 0.0 1.0 0.00 0.00 0.00 89 1019.2
20260905160627 57 204 0.0 0.0 0.00 0.00 0.00 90 1019.3
20260905160121 57 204 0.0 1.0 0.00 0.00 0.00 90 1019.0
20260905155621 56 203 0.0 0.0 0.00 0.00 0.00 89 1019.2
20260905155119 56 202 0.0 1.0 0.00 0.00 0.00 90 1019.3
20260905154614 55 201 0.0 0.0 0.00 0.00 0.00 91 1019.3
20260905154110 55 201 0.0 0.0 0.00 0.00 0.00 92 1019.2
20260905153606 54 201 0.0 1.0 0.00 0.00 0.00 93 1019.1
20260905153100 54 201 0.0 0.0 0.00 0.00 0.00 95 1019.3
20260905152555 53 201 0.0 1.0 0.00 0.00 0.00 95 1019.3
20260905152050 53 200 0.0 0.0 0.00 0.00 0.00 97 1019.1
20260905151545 53 200 0.0 0.0 0.00 0.00 0.00 98 1019.2
20260905151040 53 200 0.0 0.0 0.00 0.00 0.00 99 1019.0
20260905150536 53 200 0.0 0.0 0.00 0.00 0.00 99 1018.9
20260905150033 53 200 0.0 0.0 0.00 0.00 0.00 99 1018.9
20260905145527 53 200 0.0 0.0 0.00 0.00 0.00 99 1018.9
20260905145027 52 200 0.0 0.0 0.00 0.00 0.00 99 1018.9
20260905144522 52 200 0.0 0.0 0.00 0.00 0.00 99 1018.9
20260905144021 52 200 0.0 0.0 0.00 0.00 0.00 99 1018.8
20260905143520 52 200 0.0 0.0 0.00 0.00 0.00 99 1018.6
20260905143015 52 200 0.0 0.0 0.00 0.00 0.00 99 1018.9
20260905142514 52 200 0.0 0.0 0.00 0.00 0.00 99 1018.7
20260905142010 51 200 0.0 0.0 0.00 0.00 0.00 99 1018.5
20260905141509 51 200 0.0 0.0 0.00 0.00 0.00 99 1018.6
20260905141006 51 200 0.0 0.0 0.00 0.00 0.00 99 1018.6
20260905140501 51 200 0.0 0.0 0.00 0.00 0.00 99 1018.5
20260905135959 51 200 0.0 0.0 0.00 0.00 0.00 99 1018.3
20260905135455 51 200 0.0 0.0 0.00 0.00 0.00 99 1018.6
20260905134950 51 200 0.0 0.0 0.00 0.00 0.00 99 1018.4
20260905134449 51 200 0.0 0.0 0.00 0.00 0.00 99 1018.6
20260905133949 51 200 0.0 0.0 0.00 0.00 0.00 99 1018.6
20260905133444 51 200 0.0 0.0 0.00 0.00 0.00 99 1018.5
20260905132944 51 200 0.0 0.0 0.00 0.00 0.00 99 1018.5
20260905132439 51 200 0.0 0.0 0.00 0.00 0.00 99 1018.6
20260905131933 51 200 0.0 0.0 0.00 0.00 0.00 99 1018.8
20260905131430 51 200 0.0 0.0 0.00 0.00 0.00 99 1018.6
20260905130930 51 200 0.0 0.0 0.00 0.00 0.00 99 1018.7
20260905130424 51 200 0.0 0.0 0.00 0.00 0.00 99 1018.6
20260905125924 51 200 0.0 0.0 0.00 0.00 0.00 99 1018.6
20260905125419 51 200 0.0 0.0 0.00 0.00 0.00 99 1018.5
20260905124914 50 200 0.0 0.0 0.00 0.00 0.00 99 1018.4
20260905124411 51 200 0.0 0.0 0.00 0.00 0.00 99 1018.5
20260905123910 51 200 0.0 0.0 0.00 0.00 0.00 99 1018.5
20260905123407 51 200 0.0 0.0 0.00 0.00 0.00 99 1018.3
20260905122902 51 200 0.0 0.0 0.00 0.00 0.00 99 1018.5
20260905122401 51 200 0.0 0.0 0.00 0.00 0.00 99 1018.3
20260905121857 51 200 0.0 0.0 0.00 0.00 0.00 99 1018.2
20260905121353 51 200 0.0 0.0 0.00 0.00 0.00 99 1018.3
20260905120852 51 200 0.0 0.0 0.00 0.00 0.00 99 1018.3
20260905120346 51 200 0.0 0.0 0.00 0.00 0.00 99 1018.3
20260905115842 51 200 0.0 0.0 0.00 0.00 0.00 99 1018.4
20260905115340 50 200 0.0 0.0 0.00 0.00 0.00 99 1018.3
20260905114835 50 200 0.0 0.0 0.00 0.00 0.00 99 1018.3
20260905114334 51 200 0.0 0.0 0.00 0.00 0.00 99 1018.0
20260905113828 50 200 0.0 0.0 0.00 0.00 0.00 99 1018.4
20260905113324 51 200 0.0 0.0 0.00 0.00 0.00 99 1018.0
20260905112819 51 200 0.0 0.0 0.00 0.00 0.00 99 1018.0
20260905112314 51 200 0.0 0.0 0.00 0.00 0.00 99 1018.2
20260905111809 51 200 0.0 0.0 0.00 0.00 0.00 99 1018.1
20260905111303 51 200 0.0 0.0 0.00 0.00 0.00 99 1018.3
20260905110803 51 200 0.0 0.0 0.00 0.00 0.00 99 1018.2
20260905110256 51 200 0.0 0.0 0.00 0.00 0.00 99 1018.3
20260905105752 51 200 0.0 0.0 0.00 0.00 0.00 99 1018.2
20260905105251 51 200 0.0 0.0 0.00 0.00 0.00 99 1018.0
20260905104746 51 200 0.0 0.0 0.00 0.00 0.00 99 1018.0
20260905104242 51 200 0.0 0.0 0.00 0.00 0.00 99 1018.1
20260905103741 51 200 0.0 0.0 0.00 0.00 0.00 99 1018.1
20260905103237 51 200 0.0 0.0 0.00 0.00 0.00 99 1018.1
20260905102733 51 200 0.0 0.0 0.00 0.00 0.00 99 1018.0
20260905102230 51 200 0.0 0.0 0.00 0.00 0.00 99 1017.8
20260905101728 51 200 0.0 0.0 0.00 0.00 0.00 99 1018.1
20260905101227 52 200 0.0 0.0 0.00 0.00 0.00 99 1018.1
20260905100723 52 200 0.0 0.0 0.00 0.00 0.00 99 1018.1
20260905100218 51 200 0.0 0.0 0.00 0.00 0.00 99 1018.0
20260905095718 51 200 0.0 0.0 0.00 0.00 0.00 99 1017.8
20260905095212 52 200 0.0 0.0 0.00 0.00 0.00 99 1017.9
20260905094707 52 200 0.0 0.0 0.00 0.00 0.00 99 1018.1
20260905094207 52 200 0.0 0.0 0.00 0.00 0.00 99 1018.1
20260905093701 52 200 0.0 0.0 0.00 0.00 0.00 99 1017.8
20260905093157 52 200 0.0 0.0 0.00 0.00 0.00 99 1017.8
20260905092653 52 200 0.0 0.0 0.00 0.00 0.00 99 1018.1
20260905092148 52 200 0.0 0.0 0.00 0.00 0.00 99 1017.9
20260905091647 52 200 0.0 0.0 0.00 0.00 0.00 99 1017.8
20260905091142 52 200 0.0 0.0 0.00 0.00 0.00 98 1017.8
20260905090636 52 200 0.0 0.0 0.00 0.00 0.00 98 1017.8
20260905090132 52 200 0.0 0.0 0.00 0.00 0.00 98 1017.9
20260905085630 52 200 0.0 0.0 0.00 0.00 0.00 98 1017.8
20260905085126 52 200 0.0 0.0 0.00 0.00 0.00 98 1017.9
20260905084625 52 200 0.0 0.0 0.00 0.00 0.00 98 1017.6
20260905084115 52 200 0.0 0.0 0.00 0.00 0.00 97 1018.0
20260905083615 52 200 0.0 0.0 0.00 0.00 0.00 97 1017.9
20260905083112 52 200 0.0 0.0 0.00 0.00 0.00 97 1017.8
20260905082606 53 200 0.0 0.0 0.00 0.00 0.00 97 1017.7
20260905082057 53 200 0.0 0.0 0.00 0.00 0.00 97 1017.7
20260905081556 53 200 0.0 0.0 0.00 0.00 0.00 97 1017.8
20260905081051 53 200 0.0 0.0 0.00 0.00 0.00 96 1017.7
20260905080550 53 200 0.0 0.0 0.00 0.00 0.00 97 1017.6
20260905080045 53 200 0.0 0.0 0.00 0.00 0.00 96 1017.7
20260905075539 53 200 0.0 0.0 0.00 0.00 0.00 96 1017.8
20260905075038 53 200 0.0 0.0 0.00 0.00 0.00 96 1017.8
20260905074532 53 200 0.0 0.0 0.00 0.00 0.00 96 1017.7
20260905074029 53 200 0.0 0.0 0.00 0.00 0.00 95 1017.6
20260905073524 53 200 0.0 0.0 0.00 0.00 0.00 95 1017.6
20260905073020 53 200 0.0 0.0 0.00 0.00 0.00 95 1017.6
20260905072519 53 200 0.0 0.0 0.00 0.00 0.00 95 1017.9
20260905072015 54 200 0.0 0.0 0.00 0.00 0.00 95 1017.8
20260905071511 54 200 0.0 0.0 0.00 0.00 0.00 95 1017.8
20260905071011 54 201 0.0 0.0 0.00 0.00 0.00 96 1017.6
20260905070506 54 201 0.0 0.0 0.00 0.00 0.00 96 1017.5
20260905070001 54 201 0.0 0.0 0.00 0.00 0.00 95 1017.6
20260905065459 54 201 0.0 0.0 0.00 0.00 0.00 95 1017.4
20260905064955 54 201 0.0 0.0 0.00 0.00 0.00 95 1017.5
20260905064449 54 201 0.0 0.0 0.00 0.00 0.00 95 1017.7
20260905063944 54 201 0.0 0.0 0.00 0.00 0.00 95 1017.4
20260905063439 54 201 0.0 0.0 0.00 0.00 0.00 95 1017.5
20260905062935 54 201 0.0 0.0 0.00 0.00 0.00 94 1017.7
20260905062429 55 201 0.0 0.0 0.00 0.00 0.00 94 1017.2
20260905061924 55 201 0.0 0.0 0.00 0.00 0.00 94 1017.2
20260905061419 55 201 0.0 0.0 0.00 0.00 0.00 93 1017.1
20260905060918 55 201 0.0 0.0 0.00 0.00 0.00 93 1017.1
20260905060415 56 201 0.0 0.0 0.00 0.00 0.00 93 1017.0
20260905055914 56 201 0.0 0.0 0.00 0.00 0.00 92 1017.1
20260905055409 56 201 0.0 0.0 0.00 0.00 0.00 92 1017.1
20260905054908 56 201 0.0 0.0 0.00 0.00 0.00 92 1017.1
20260905054405 56 201 0.0 0.0 0.00 0.00 0.00 91 1016.9
20260905053904 56 201 0.0 0.0 0.00 0.00 0.00 91 1017.1
20260905053359 57 201 0.0 0.0 0.00 0.00 0.00 91 1017.0
20260905052855 57 201 0.0 0.0 0.00 0.00 0.00 90 1016.9
20260905052354 57 201 0.0 0.0 0.00 0.00 0.00 89 1016.8
20260905051854 57 201 0.0 0.0 0.00 0.00 0.00 89 1017.0
20260905051350 57 201 0.0 0.0 0.00 0.00 0.00 89 1017.1
20260905050847 57 201 0.0 0.0 0.00 0.00 0.00 88 1017.3
20260905050343 57 201 0.0 0.0 0.00 0.00 0.00 88 1017.1
20260905045842 57 201 0.0 0.0 0.00 0.00 0.00 87 1017.0
20260905045338 57 201 0.0 0.0 0.00 0.00 0.00 86 1017.1
20260905044833 57 201 0.0 0.0 0.00 0.00 0.00 85 1017.1
20260905044329 57 201 0.0 0.0 0.00 0.00 0.00 85 1017.1
20260905043827 57 201 0.0 0.0 0.00 0.00 0.00 85 1017.1
20260905043322 58 201 0.0 0.0 0.00 0.00 0.00 85 1017.1
20260905042817 58 201 0.0 0.0 0.00 0.00 0.00 85 1016.8
20260905042316 58 201 0.0 0.0 0.00 0.00 0.00 85 1017.2
20260905041812 58 201 0.0 0.0 0.00 0.00 0.00 84 1017.2
20260905041308 58 201 0.0 0.0 0.00 0.00 0.00 83 1017.1
20260905040803 58 201 0.0 0.0 0.00 0.00 0.00 83 1017.2
20260905040301 58 201 0.0 0.0 0.00 0.00 0.00 82 1017.2
20260905035756 58 201 0.0 0.0 0.00 0.00 0.00 82 1017.1
20260905035252 58 201 0.0 0.0 0.00 0.00 0.00 83 1017.0
20260905034749 58 202 0.0 0.0 0.00 0.00 0.00 83 1017.2
20260905034248 58 213 0.0 0.0 0.00 0.00 0.00 83 1017.0
20260905033747 58 213 0.0 0.0 0.00 0.00 0.00 82 1017.0
20260905033243 58 213 0.0 0.0 0.00 0.00 0.00 83 1016.9
20260905032742 58 213 0.0 0.0 0.00 0.00 0.00 84 1016.9
20260905032237 58 219 0.0 0.0 0.00 0.00 0.00 83 1016.8
20260905031732 58 210 0.0 0.0 0.00 0.00 0.00 82 1016.9
20260905031228 59 210 0.0 0.0 0.00 0.00 0.00 82 1016.9
20260905030723 59 210 0.0 0.0 0.00 0.00 0.00 83 1016.6
20260905030218 59 210 0.0 0.0 0.00 0.00 0.00 83 1016.7
20260905025713 59 210 0.0 0.0 0.00 0.00 0.00 82 1016.6
20260905025209 59 210 0.0 0.0 0.00 0.00 0.00 81 1016.9
20260905024704 60 210 0.0 0.0 0.00 0.00 0.00 80 1016.6
20260905024200 60 205 0.0 0.0 0.00 0.00 0.00 79 1016.7
20260905023655 59 210 0.0 0.0 0.00 0.00 0.00 81 1016.5
20260905023155 59 199 0.0 0.0 0.00 0.00 0.00 81 1016.5
20260905022654 59 198 0.0 1.0 0.00 0.00 0.00 82 1016.3
20260905022149 60 202 0.0 0.0 0.00 0.00 0.00 83 1016.5
20260905021649 60 201 0.0 0.0 0.00 0.00 0.00 82 1016.5
20260905021144 60 201 0.0 0.0 0.00 0.00 0.00 82 1016.4
20260905020639 60 200 0.0 1.0 0.00 0.00 0.00 82 1016.5
20260905020134 60 197 0.0 0.0 0.00 0.00 0.00 82 1016.2
20260905015633 61 191 0.0 0.0 0.00 0.00 0.00 82 1016.4
20260905015127 61 188 0.0 0.0 0.00 0.00 0.00 81 1016.4
20260905014621 62 162 1.0 2.0 0.00 0.00 0.00 79 1016.3
20260905014117 62 235 0.0 1.0 0.00 0.00 0.00 79 1016.3
20260905013613 62 192 0.0 0.0 0.00 0.00 0.00 79 1016.5
20260905013109 62 24 0.0 1.0 0.00 0.00 0.00 78 1016.3
20260905012609 62 196 0.0 0.0 0.00 0.00 0.00 77 1016.0
20260905012105 62 199 0.0 0.0 0.00 0.00 0.00 76 1015.9
20260905011601 62 195 0.0 1.0 0.00 0.00 0.00 75 1016.3
20260905011057 62 194 1.0 1.0 0.00 0.00 0.00 74 1016.0
20260905010556 62 209 0.0 1.0 0.00 0.00 0.00 74 1016.1
20260905010053 63 200 0.0 1.0 0.00 0.00 0.00 74 1016.0
20260905005548 63 166 0.0 1.0 0.00 0.00 0.00 73 1015.8
20260905005043 63 188 0.0 2.0 0.00 0.00 0.00 73 1016.0
20260905004538 63 188 0.0 1.0 0.00 0.00 0.00 76 1016.0
20260905004033 63 158 0.0 0.0 0.00 0.00 0.00 76 1015.6
20260905003529 63 193 0.0 1.0 0.00 0.00 0.00 76 1015.8
20260905003025 64 109 0.0 1.0 0.00 0.00 0.00 75 1015.7
20260905002520 64 197 0.0 1.0 0.00 0.00 0.00 73 1015.7
20260905002020 65 195 0.0 1.0 0.00 0.00 0.00 70 1015.6
20260905001514 66 205 1.0 2.0 0.00 0.00 0.00 66 1015.6
20260905001009 67 76 0.0 1.0 0.00 0.00 0.00 63 1015.7
20260905000504 68 176 0.0 1.0 0.00 0.00 0.00 60 1015.7
20260905000000 69 30 0.0 1.0 0.00 0.00 0.00 53 1015.5
20260904235455 71 208 0.0 1.0 0.00 0.00 0.00 51 1015.4
20260904234949 74 201 0.0 2.0 0.00 0.00 0.00 47 1015.4
20260904234449 75 141 0.0 1.0 0.00 0.00 0.00 49 1015.3
20260904233945 74 212 0.0 3.0 0.00 0.00 0.00 51 1015.4
20260904233440 75 214 0.0 2.0 0.00 0.00 0.00 49 1015.5
20260904232937 78 209 0.0 0.0 0.00 0.00 0.00 46 1015.3
20260904232433 77 218 0.0 1.0 0.00 0.00 0.00 45 1015.2
20260904231929 76 199 0.0 1.0 0.00 0.00 0.00 47 1015.1
20260904231429 75 213 0.0 1.0 0.00 0.00 0.00 46 1015.2
20260904230925 76 232 1.0 2.0 0.00 0.00 0.00 46 1015.1
20260904230423 75 211 1.0 2.0 0.00 0.00 0.00 50 1015.2
20260904225918 76 242 1.0 2.0 0.00 0.00 0.00 48 1015.0
20260904225417 75 220 1.0 2.0 0.00 0.00 0.00 49 1015.0
20260904224911 77 207 1.0 3.0 0.00 0.00 0.00 46 1015.1
20260904224407 75 213 0.0 2.0 0.00 0.00 0.00 48 1015.0
20260904223901 75 231 0.0 2.0 0.00 0.00 0.00 51 1014.8
20260904223400 76 209 1.0 3.0 0.00 0.00 0.00 47 1015.0
20260904222856 76 214 1.0 2.0 0.00 0.00 0.00 47 1014.8
20260904222351 76 229 2.0 3.0 0.00 0.00 0.00 48 1015.0
20260904221851 76 216 0.0 0.0 0.00 0.00 0.00 50 1014.9
20260904221346 78 215 1.0 2.0 0.00 0.00 0.00 48 1014.9
20260904220841 77 216 0.0 0.0 0.00 0.00 0.00 49 1015.1
20260904220340 75 214 0.0 1.0 0.00 0.00 0.00 52 1015.0
20260904215836 74 238 1.0 2.0 0.00 0.00 0.00 52 1014.9
20260904215331 74 225 0.0 2.0 0.00 0.00 0.00 55 1014.8
20260904214827 75 205 1.0 3.0 0.00 0.00 0.00 51 1014.9
20260904214322 76 21 1.0 3.0 0.00 0.00 0.00 49 1014.8
20260904213820 75 224 1.0 1.0 0.00 0.00 0.00 53 1014.5
20260904213315 75 218 0.0 2.0 0.00 0.00 0.00 56 1014.7
20260904212811 76 211 0.0 0.0 0.00 0.00 0.00 57 1014.7
20260904212306 75 223 0.0 1.0 0.00 0.00 0.00 53 1014.8
20260904211801 76 223 1.0 1.0 0.00 0.00 0.00 53 1014.7
20260904211255 74 222 0.0 1.0 0.00 0.00 0.00 55 1014.7
20260904210751 73 230 0.0 1.0 0.00 0.00 0.00 59 1014.6
20260904210244 73 198 0.0 3.0 0.00 0.00 0.00 57 1014.8
20260904205741 72 214 0.0 2.0 0.00 0.00 0.00 60 1014.8
20260904205237 72 217 1.0 2.0 0.00 0.00 0.00 57 1014.7
20260904204733 72 215 2.0 3.0 0.00 0.00 0.00 56 1014.6
20260904204229 73 211 1.0 2.0 0.00 0.00 0.00 55 1014.6
20260904203725 72 252 0.0 1.0 0.00 0.00 0.00 60 1014.7
20260904203221 72 255 1.0 2.0 0.00 0.00 0.00 60 1014.8
20260904202717 71 212 1.0 2.0 0.00 0.00 0.00 61 1014.6
20260904202213 71 234 1.0 2.0 0.00 0.00 0.00 60 1014.8